Location: Unspecified
(0.0000°N, 0.0000°E)
Time: 14:42:30
(UTC+01:00)

Vanguard 2 Rocket - Visible Passes

Search period start: 18 January 2018 00:00
Search period end: 28 January 2018 00:00
Orbit: 556 x 3326 km, 32.9° (Epoch: 17 January)

Date Brightness Start Highest point End Pass type
(mag) Time Alt. Az. Time Alt. Az. Time Alt. Az.
18 Jan 10.9 01:02:59 10° SSW 01:15:29 20° SSE 01:28:43 10° SE visible
18 Jan 10.2 03:19:53 10° SW 03:38:17 40° SSE 03:53:04 10° E visible
18 Jan 9.1 05:37:56 10° SW 05:57:28 86° SE 06:09:28 10° NE visible
18 Jan 9.3 19:24:21 10° W 19:30:30 35° SSW 19:40:38 10° SE visible
18 Jan 10.5 21:42:04 10° SW 21:48:54 17° S 21:57:54 10° SSE visible
19 Jan 10.9 00:01:55 10° SSW 00:11:49 17° S 00:23:07 10° SE visible
19 Jan 10.5 02:18:36 10° SSW 02:35:21 32° SSE 02:50:44 10° E visible
19 Jan 9.5 04:35:37 10° SW 04:55:49 68° SE 05:09:37 10° ENE visible
19 Jan 10.2 20:41:05 10° SW 20:47:10 19° SSW 20:55:33 10° SSE visible
19 Jan 10.8 23:01:00 10° SSW 23:08:25 15° S 23:17:15 10° SE visible
20 Jan 10.7 01:17:43 10° SSW 01:32:06 25° SSE 01:46:59 10° ESE visible
20 Jan 9.8 03:33:51 10° SW 03:53:37 54° SSE 04:09:01 10° ENE visible
20 Jan 9.0 05:52:39 10° WSW 06:11:56 70° NW 06:23:57 10° NE visible
20 Jan 9.9 19:40:39 10° WSW 19:46:06 22° SSW 19:54:03 10° SSE visible
20 Jan 10.7 22:00:08 10° SSW 22:05:36 13° S 22:12:10 10° SSE visible
21 Jan 10.8 00:17:15 10° SSW 00:28:43 20° SSE 00:41:42 10° ESE visible
21 Jan 10.2 02:32:37 10° SW 02:50:59 42° SSE 03:07:25 10° E visible
21 Jan 9.2 04:49:56 10° SW 05:10:30 89° SE 05:24:27 10° NE visible
21 Jan 10.5 20:59:11 10° SSW 21:03:28 13° S 21:08:40 10° SSE visible
21 Jan 10.8 23:17:11 10° SSW 23:25:26 16° SSE 23:35:10 10° SE visible
22 Jan 10.4 01:31:54 10° SSW 01:48:05 33° SSE 02:04:34 10° E visible
22 Jan 9.5 03:47:56 10° SW 04:08:30 71° SE 04:24:18 10° ENE visible
22 Jan 9.2 06:08:01 10° WSW 06:26:14 51° NW 06:38:04 10° NE visible
22 Jan 10.2 19:58:13 10° SW 20:02:03 13° S 20:06:47 10° SSE visible
22 Jan 10.8 22:17:38 10° SSW 22:22:30 12° S 22:28:06 10° SSE visible
23 Jan 10.6 00:31:42 10° SSW 00:45:05 25° SSE 01:00:12 10° ESE visible
23 Jan 9.8 02:46:36 10° SW 03:06:06 56° SSE 03:23:19 10° ENE visible
23 Jan 9.2 05:04:43 10° WSW 05:24:55 69° NW 05:38:53 10° NE visible
23 Jan 10.7 23:32:02 10° SSW 23:42:06 19° SSE 23:53:24 11° ESE visible
24 Jan 10.1 01:45:52 10° SW 02:04:21 44° SE 02:21:15 10° E visible
24 Jan 9.3 04:02:19 10° SW 04:23:05 88° NW 04:39:05 10° NE visible
24 Jan 9.5 06:24:15 10° W 06:40:41 36° NW 06:51:57 10° NNE visible
24 Jan 10.7 22:33:07 10° S 22:39:19 14° SSE 22:46:37 10° SE visible
25 Jan 10.3 00:45:44 10° SSW 01:13:35 18° ESE 01:17:51 10° E visible
25 Jan 9.5 03:00:44 10° SW 03:20:50 74° SE 03:38:32 10° ENE visible
25 Jan 9.4 05:25:50 23° W 05:39:18 51° NW 05:53:00 10° NE visible
25 Jan 10.4 23:46:09 10° SSW 23:58:12 25° SSE 23:58:37 25° SSE visible
26 Jan 10.1 01:59:52 10° SW 02:26:23 41° E 02:37:06 10° ENE visible
26 Jan 9.3 04:32:25 56° W 04:37:30 68° NW 04:53:27 10° NE visible
26 Jan 9.8 06:41:35 10° W 06:55:28 26° NW 07:05:36 10° NNE visible
26 Jan 10.5 22:47:17 10° SSW 22:55:45 17° SSE 23:00:36 15° SE visible
27 Jan 10.3 00:59:38 10° SW 01:32:16 15° E 01:34:33 10° E visible
27 Jan 9.4 03:38:15 73° NE 03:38:15 73° NE 03:53:14 10° NE visible
27 Jan 9.6 05:44:12 25° W 05:53:53 38° NW 06:06:53 10° NNE visible
27 Jan 10.6 21:50:11 10° S 21:53:29 11° SSE 21:57:10 10° SE visible
